Voltar ao catálogo

STARLINK-37078

AtivoComunicaçõesVLEO
NORAD 68174·PAYLOAD·🇺🇸 United States

Lançado Mar 14, 2026 de Vandenberg Space Force Base

Loading…

Próximas Passagens (próximas 24 horas)

TLE

AtualizadoSource: CelesTrak SupGP

Época: Sep 14, 2026, 21:30 UTC

1 68174C 26050H   26257.89631944 -.00030358  00000+0 -89716-3 0  2576
2 68174  53.1578 104.1235 0001332  89.1433 312.6816 15.34397906    15

Acompanhe STARLINK-37078 em tempo real com AllMySat

Download on the App Store